Tracking 31027 objects as of 19-Jul-2025
HD Live streaming from Space Station
objects crossing your sky now

OPS 4682 DEB

Track OPS 4682 DEB now!
10-day predictions


NORAD ID: 38409
Int'l Code: 1965-027DN
Perigee: 1,245.2 km
Apogee: 1,301.2 km
Inclination: 90.3 °
Period: 110.9 minutes
Semi major axis: 7644 km
RCS: 0.0099 m2 (small)
Launch date: April 3, 1965
Source: United States (US)
Launch site: AIR FORCE WESTERN TEST RANGE (AFWTR)

Note: This is SATELLITE DEBRIS
Your satellite tracking list
DELTA 1 DEB
Track 1 satellite(s)




NASA's NSSDC Master Catalog

Two Line Element Set (TLE):
1 38409U 65027DN  25199.76381127 -.00000145  00000-0 -51180-3 0  9995
2 38409  90.2765  18.3153 0036659 150.0242 210.2989 12.98993114144927
Source of the keplerian elements: AFSPC